Weather History for MMLO - November, 2013

Change the Weather History Date:

Friday, November 22, 2013

  Actual Average Record
Temperature  
Mean Temperature 66 °F -  
Max Temperature 80 °F 76 °F 87 °F (2011)
Min Temperature 51 °F 44 °F 32 °F (2006)
Growing Degree Days 16 (Base 50)    
Moisture  
Dew Point 51 °F    
Average Humidity 65    
Maximum Humidity 94    
Minimum Humidity 30    
Precipitation  
Precipitation 0.00 in - - ()
Sea Level Pressure  
Sea Level Pressure 30.16 in    
Wind  
Wind Speed 2 mph ()    
Max Wind Speed 8 mph    
Max Gust Speed -    
Visibility 9.0 miles    
Events      
Averages and records for this station are not official NWS values.
T = Trace of Precipitation, MM = Missing Value Source: Averaged Metar Reports

Daily Weather History Graph

Daily Weather History Graph

Search for Another Location

Airport or City:

Trip Planner

Search our weather history database for the weather conditions in past years. The results will help you decide how hot, cold, wet, or windy it might be!

Date:

Astronomy

Nov. 22, 2013 Rise Set
Actual Time 7:00 AM CST 6:03 PM CST
Civil Twilight 6:37 AM CST 6:27 PM CST
Nautical Twilight 6:10 AM CST 6:54 PM CST
Astronomical Twilight 5:43 AM CST 7:20 PM CST
Moon 10:27 PM CST (11/22) 10:53 AM CST (11/22)
Length of Visible Light 11h 49m
Length of Day
11h 02m
Waning Gibbous, 78% of the Moon is Illuminated
Nov 22
Waning Gibbous
Nov 25
Last Quarter
Dec 2
New
Dec 9
First Quarter
Dec 17
Full

Hourly Weather History & Observations

Time (CST) Temp. Dew Point Humidity Pressure Visibility Wind Dir Wind Speed Gust Speed Precip Events Conditions
1:41 AM 57.2 °F 55.4 °F 94% 30.27 in 7.0 mi South 5.8 mph - N/A   Overcast
2:58 AM 57.2 °F 51.8 °F 82% 30.27 in 8.0 mi Calm Calm - N/A   Overcast
4:40 AM 55.4 °F 51.8 °F 88% 30.24 in 8.0 mi Calm Calm - N/A   Overcast
5:47 AM 53.6 °F 51.8 °F 94% 29.95 in 8.0 mi Calm Calm - N/A   Overcast
6:52 AM 51.8 °F 50.0 °F 94% 30.27 in 10.0 mi Calm Calm - N/A   Clear
7:53 AM 53.6 °F 51.8 °F 94% 30.29 in 10.0 mi Calm Calm - N/A   Clear
8:51 AM 60.8 °F 51.8 °F 72% 30.01 in 10.0 mi Calm Calm - N/A   Clear
9:43 AM 66.2 °F 53.6 °F 64% 30.32 in 10.0 mi Calm Calm - N/A   Clear
10:47 AM 69.8 °F 51.8 °F 53% 30.32 in 10.0 mi Calm Calm - N/A   Scattered Clouds
11:48 AM 73.4 °F 51.8 °F 47% 29.98 in 10.0 mi South 5.8 mph - N/A   Partly Cloudy
12:43 PM 77.0 °F 48.2 °F 36% 30.27 in 10.0 mi ESE 5.8 mph - N/A   Partly Cloudy
1:45 PM 78.8 °F 48.2 °F 34% 30.21 in 10.0 mi Calm Calm - N/A   Partly Cloudy
3:40 PM 80.6 °F 46.4 °F 30% 30.19 in 10.0 mi SW 6.9 mph - N/A   Scattered Clouds
4:50 PM 78.8 °F 46.4 °F 32% 30.18 in 10.0 mi Calm Calm - N/A   Scattered Clouds
5:45 PM 71.6 °F 48.2 °F 43% 29.87 in 10.0 mi Calm Calm - N/A   Scattered Clouds
7:44 PM 62.6 °F 51.8 °F 68% 30.21 in 8.0 mi Calm Calm - N/A   Scattered Clouds
8:50 PM 60.8 °F 51.8 °F 72% 29.94 in 8.0 mi NE 5.8 mph - N/A   Scattered Clouds
9:51 PM 62.6 °F 51.8 °F 68% 30.27 in 8.0 mi NE 8.1 mph - N/A   Scattered Clouds
10:57 PM 62.6 °F 51.8 °F 68% 30.27 in 8.0 mi ESE 4.6 mph - N/A   Scattered Clouds
11:49 PM 60.8 °F 51.8 °F 72% 29.89 in 8.0 mi Calm Calm - N/A   Scattered Clouds